• In Deutschland
  • Länderverzeichnis
  • Für 7 Tage
  • Wassertemperatur
  • Satellitenkarten
  • Wetterkarte
  • Widgets
  • user-avatar
    Anmelden

    Stündliche Wetter Gelting

    Heute, 11 Dezember, Montag

    Zeit Temperatur Niederschläge Wind Luftdruck Luftfeuchtigkeit
    00:00 -3°C° 0,2 mm 7 m/S 734 mmHg 85%
    01:00 -3°C° 0,2 mm 7 m/S 734 mmHg 85%
    02:00 -3°C° 0,1 mm 7 m/S 734 mmHg 84%
    03:00 -3°C° 0,1 mm 6 m/S 735 mmHg 84%
    04:00 -3°C° 0,1 mm 6 m/S 735 mmHg 83%
    05:00 -2°C° 0,1 mm 6 m/S 736 mmHg 83%
    06:00 -1°C° 0,1 mm 5 m/S 737 mmHg 83%
    07:00 -1°C° 0,1 mm 5 m/S 737 mmHg 83%
    08:00 -1°C° 0 mm 5 m/S 738 mmHg 83%
    09:00 -1°C° 0 mm 5 m/S 738 mmHg 83%
    10:00 -2°C° 0 mm 6 m/S 739 mmHg 83%
    11:00 -1°C° 0 mm 5 m/S 739 mmHg 82%
    12:00 0°C° 0 mm 5 m/S 740 mmHg 82%
    13:00 0°C° 0 mm 4 m/S 740 mmHg 81%
    14:00 0°C° 0 mm 5 m/S 740 mmHg 81%
    15:00 0°C° 0 mm 5 m/S 740 mmHg 82%
    16:00 -1°C° 0 mm 6 m/S 739 mmHg 82%
    17:00 -1°C° 0,2 mm 6 m/S 739 mmHg 83%
    18:00 -1°C° 0,2 mm 7 m/S 739 mmHg 84%
    19:00 -1°C° 0,2 mm 7 m/S 738 mmHg 85%
    20:00 -1°C° 1,1 mm 6 m/S 738 mmHg 87%
    21:00 -1°C° 1,1 mm 6 m/S 738 mmHg 90%
    22:00 0°C° 1,1 mm 5 m/S 738 mmHg 92%
    23:00 0°C° 0,5 mm 5 m/S 738 mmHg 93%

    Morgen, 12 Dezember, Dienstag

    Zeit Temperatur Niederschläge Wind Luftdruck Luftfeuchtigkeit
    00:00 0°C° 0,5 mm 5 m/S 737 mmHg 94%
    01:00 0°C° 0,5 mm 5 m/S 737 mmHg 95%
    02:00 0°C° 0,5 mm 4 m/S 737 mmHg 95%
    03:00 0°C° 0,5 mm 4 m/S 737 mmHg 96%
    04:00 0°C° 0,5 mm 4 m/S 737 mmHg 96%
    05:00 0°C° 0,4 mm 5 m/S 737 mmHg 95%
    06:00 0°C° 0,4 mm 5 m/S 738 mmHg 93%
    07:00 -1°C° 0,4 mm 6 m/S 739 mmHg 92%
    08:00 -1°C° 0,2 mm 7 m/S 740 mmHg 90%
    09:00 -1°C° 0,2 mm 8 m/S 741 mmHg 89%
    10:00 -1°C° 0,2 mm 9 m/S 742 mmHg 87%
    11:00 -1°C° 0,1 mm 8 m/S 744 mmHg 86%
    12:00 -1°C° 0,1 mm 8 m/S 745 mmHg 85%
    13:00 -1°C° 0,1 mm 8 m/S 746 mmHg 83%
    14:00 -1°C° 0,1 mm 7 m/S 747 mmHg 83%
    15:00 -1°C° 0,1 mm 7 m/S 748 mmHg 82%
    16:00 -2°C° 0,1 mm 6 m/S 749 mmHg 81%
    17:00 -1°C° 0 mm 6 m/S 750 mmHg 81%
    18:00 -1°C° 0 mm 6 m/S 751 mmHg 82%
    19:00 0°C° 0 mm 5 m/S 752 mmHg 82%
    20:00 -1°C° 0 mm 6 m/S 753 mmHg 82%
    21:00 -1°C° 0 mm 6 m/S 753 mmHg 81%
    22:00 -1°C° 0 mm 6 m/S 754 mmHg 81%
    23:00 0°C° 0 mm 7 m/S 754 mmHg 81%

    übermorgen, 13 Dezember, Mittwoch

    Zeit Temperatur Niederschläge Wind Luftdruck Luftfeuchtigkeit
    00:00 0°C° 0 mm 7 m/S 754 mmHg 82%
    01:00 0°C° 0 mm 8 m/S 754 mmHg 82%
    02:00 0°C° 0 mm 8 m/S 754 mmHg 83%
    03:00 0°C° 0 mm 8 m/S 754 mmHg 85%
    04:00 -1°C° 0 mm 9 m/S 754 mmHg 86%
    05:00 -1°C° 0 mm 9 m/S 754 mmHg 87%
    06:00 -1°C° 0 mm 9 m/S 753 mmHg 88%
    07:00 -1°C° 0 mm 9 m/S 753 mmHg 90%
    08:00 -1°C° 0 mm 9 m/S 752 mmHg 90%
    09:00 -1°C° 0 mm 9 m/S 752 mmHg 90%
    10:00 -1°C° 0 mm 9 m/S 751 mmHg 90%
    11:00 -2°C° 0,2 mm 10 m/S 750 mmHg 89%
    12:00 0°C° 0,2 mm 10 m/S 749 mmHg 88%
    13:00 -1°C° 0,2 mm 11 m/S 748 mmHg 87%
    14:00 -1°C° 0,2 mm 11 m/S 747 mmHg 87%
    15:00 -1°C° 0,2 mm 11 m/S 746 mmHg 86%
    16:00 -1°C° 0,2 mm 11 m/S 745 mmHg 86%
    17:00 +1°C° 0,7 mm 10 m/S 744 mmHg 88%
    18:00 +1°C° 0,7 mm 10 m/S 744 mmHg 89%
    19:00 +1°C° 0,7 mm 9 m/S 743 mmHg 91%
    20:00 +1°C° 0,2 mm 9 m/S 742 mmHg 90%
    21:00 +2°C° 0,2 mm 8 m/S 742 mmHg 89%
    22:00 +2°C° 0,2 mm 8 m/S 742 mmHg 88%
    23:00 +2°C° 0,6 mm 8 m/S 741 mmHg 85%

    14 Dezember, Donnerstag

    Zeit Temperatur Niederschläge Wind Luftdruck Luftfeuchtigkeit
    00:00 +2°C° 0,6 mm 9 m/S 741 mmHg 81%
    01:00 +2°C° 0,6 mm 9 m/S 741 mmHg 78%
    02:00 +2°C° 0,1 mm 9 m/S 740 mmHg 77%
    03:00 +1°C° 0,1 mm 8 m/S 740 mmHg 76%
    04:00 +1°C° 0,1 mm 8 m/S 740 mmHg 76%
    05:00 0°C° 0,3 mm 8 m/S 740 mmHg 76%
    06:00 0°C° 0,3 mm 7 m/S 740 mmHg 77%
    07:00 0°C° 0,3 mm 7 m/S 740 mmHg 77%
    08:00 0°C° 0,1 mm 8 m/S 740 mmHg 75%
    09:00 0°C° 0,1 mm 8 m/S 740 mmHg 74%
    10:00 0°C° 0,1 mm 8 m/S 740 mmHg 72%
    11:00 0°C° 0,1 mm 8 m/S 740 mmHg 73%
    12:00 0°C° 0,1 mm 8 m/S 740 mmHg 75%
    13:00 0°C° 0,1 mm 8 m/S 739 mmHg 76%
    14:00 0°C° 0,1 mm 7 m/S 739 mmHg 79%
    15:00 +1°C° 0,1 mm 6 m/S 738 mmHg 83%
    16:00 -1°C° 0,1 mm 6 m/S 738 mmHg 86%
    17:00 -1°C° 0,1 mm 6 m/S 738 mmHg 86%
    18:00 0°C° 0,1 mm 5 m/S 737 mmHg 86%
    19:00 0°C° 0,1 mm 5 m/S 737 mmHg 87%
    20:00 -1°C° 0,2 mm 6 m/S 737 mmHg 86%
    21:00 -1°C° 0,2 mm 6 m/S 737 mmHg 86%
    22:00 -1°C° 0,2 mm 6 m/S 737 mmHg 86%
    23:00 -1°C° 0,1 mm 6 m/S 737 mmHg 85%

    15 Dezember, Freitag

    Zeit Temperatur Niederschläge Wind Luftdruck Luftfeuchtigkeit
    00:00 -1°C° 0,1 mm 7 m/S 737 mmHg 85%
    01:00 -1°C° 0,1 mm 7 m/S 736 mmHg 85%
    02:00 -1°C° 0,2 mm 7 m/S 737 mmHg 86%
    03:00 -1°C° 0,2 mm 6 m/S 737 mmHg 88%
    04:00 -1°C° 0,2 mm 6 m/S 737 mmHg 89%
    05:00 +1°C° 0,1 mm 6 m/S 737 mmHg 87%
    06:00 +1°C° 0,1 mm 6 m/S 738 mmHg 86%
    07:00 +1°C° 0,1 mm 6 m/S 739 mmHg 84%
    08:00 0°C° 0,2 mm 7 m/S 740 mmHg 83%
    09:00 +2°C° 0,2 mm 7 m/S 740 mmHg 83%
    10:00 +2°C° 0,2 mm 7 m/S 741 mmHg 82%
    11:00 +1°C° 0,1 mm 8 m/S 742 mmHg 81%
    12:00 +2°C° 0,1 mm 8 m/S 742 mmHg 80%
    13:00 +2°C° 0,1 mm 8 m/S 743 mmHg 79%
    14:00 +2°C° 0,1 mm 8 m/S 743 mmHg 79%
    15:00 +1°C° 0,1 mm 8 m/S 744 mmHg 79%
    16:00 +1°C° 0,1 mm 8 m/S 744 mmHg 79%
    17:00 +1°C° 0 mm 8 m/S 744 mmHg 79%
    18:00 +1°C° 0 mm 8 m/S 745 mmHg 79%
    19:00 +2°C° 0 mm 7 m/S 745 mmHg 78%
    20:00 +2°C° 0,1 mm 7 m/S 746 mmHg 79%
    21:00 +2°C° 0,1 mm 7 m/S 746 mmHg 79%
    22:00 0°C° 0,1 mm 7 m/S 747 mmHg 79%
    23:00 0°C° 0,1 mm 7 m/S 747 mmHg 80%

    16 Dezember, Samstag

    Zeit Temperatur Niederschläge Wind Luftdruck Luftfeuchtigkeit
    00:00 +1°C° 0,1 mm 6 m/S 747 mmHg 81%
    01:00 +1°C° 0,1 mm 6 m/S 747 mmHg 82%
    02:00 +1°C° 0 mm 5 m/S 748 mmHg 82%
    03:00 +1°C° 0 mm 5 m/S 748 mmHg 83%
    04:00 +1°C° 0 mm 5 m/S 748 mmHg 84%
    05:00 +1°C° 0 mm 5 m/S 749 mmHg 83%
    06:00 +1°C° 0 mm 5 m/S 749 mmHg 82%
    07:00 +1°C° 0 mm 5 m/S 749 mmHg 81%
    08:00 +1°C° 0 mm 5 m/S 750 mmHg 80%
    09:00 +1°C° 0 mm 5 m/S 750 mmHg 80%
    10:00 +1°C° 0 mm 5 m/S 751 mmHg 80%
    11:00 +1°C° 0 mm 5 m/S 751 mmHg 78%
    12:00 +2°C° 0 mm 5 m/S 751 mmHg 77%
    13:00 +2°C° 0 mm 5 m/S 752 mmHg 76%
    14:00 +2°C° 0,1 mm 5 m/S 752 mmHg 77%
    15:00 +2°C° 0,1 mm 5 m/S 752 mmHg 78%
    16:00 +1°C° 0,1 mm 5 m/S 752 mmHg 79%
    17:00 +1°C° 0 mm 5 m/S 753 mmHg 79%
    18:00 +1°C° 0 mm 5 m/S 753 mmHg 79%
    19:00 0°C° 0 mm 5 m/S 753 mmHg 79%
    20:00 0°C° 0 mm 5 m/S 753 mmHg 79%
    21:00 0°C° 0 mm 5 m/S 754 mmHg 79%
    22:00 +1°C° 0 mm 5 m/S 754 mmHg 80%
    23:00 +1°C° 0,1 mm 5 m/S 754 mmHg 80%
    Mehr zeigen